Date,TemperatureHighF,TemperatureAvgF,TemperatureLowF,DewpointHighF,DewpointAvgF,DewpointLowF,HumidityHigh,HumidityAvg,HumidityLow,PressureMaxIn,PressureMinIn,WindSpeedMaxMPH,WindSpeedAvgMPH,GustSpeedMaxMPH,PrecipitationSumIn
2013-5-1,86,81,72,74,72,69,93,76,66,29.99,29.92,7,1,13,0.44
2013-5-2,74,71,69,70,69,68,96,93,85,29.90,29.80,13,3,17,2.63
2013-5-3,90,76,69,74,71,68,97,85,55,29.82,29.71,10,0,12,0.81
2013-5-5,86,78,67,68,60,54,95,58,41,29.92,29.78,3,0,0,0.00
2013-5-6,78,68,60,64,59,55,89,73,57,29.95,29.91,10,0,0,0.00
2013-5-7,86,74,62,67,61,56,84,66,42,30.02,29.96,5,0,0,0.00
2013-5-8,83,75,66,65,63,60,81,66,54,30.13,30.04,4,1,0,0.00
2013-5-9,79,73,68,74,68,62,88,83,79,30.11,30.07,2,0,0,0.00
2013-5-10,85,81,75,75,73,71,90,79,66,30.08,30.01,10,2,15,0.00
2013-5-11,87,79,74,78,74,72,93,85,67,30.06,30.00,9,2,15,0.33
2013-5-12,72,72,71,71,70,70,96,95,95,30.03,29.95,0,0,0,1.64
2013-5-13,91,83,71,74,72,68,97,70,49,30.08,29.99,5,1,0,0.01
2013-5-14,82,78,74,67,61,57,76,56,47,30.17,30.06,11,3,16,0.00
2013-5-15,83,78,73,67,63,58,68,60,49,30.19,30.09,13,3,15,0.00
2013-5-16,84,77,68,67,63,60,82,64,49,30.11,30.03,9,2,13,0.00
2013-5-17,86,78,70,74,70,63,90,79,63,30.09,30.00,11,1,13,0.03
2013-5-18,86,79,73,76,72,70,95,81,66,30.10,30.03,12,2,14,0.02
2013-5-19,87,80,74,72,70,68,87,73,59,30.10,30.00,10,2,13,0.00
2013-5-20,80,76,69,76,72,67,96,90,79,30.08,29.97,8,0,15,6.90
2013-5-21,84,76,69,75,72,67,96,88,68,30.05,29.93,12,2,19,0.19
2013-5-22,87,78,73,76,73,69,95,84,62,29.97,29.89,11,1,14,0.36
2013-5-23,96,83,74,77,74,66,95,77,38,30.00,29.90,8,1,0,0.00
2013-5-24,93,84,76,77,74,67,94,74,49,30.05,29.94,9,1,13,0.00
2013-5-25,86,80,74,75,70,65,94,71,52,30.16,30.03,14,2,17,0.16
2013-5-26,85,79,72,69,66,60,78,64,55,30.17,30.10,12,2,16,0.00
2013-5-27,85,80,76,74,70,64,85,73,64,30.15,30.06,13,3,16,0.02
2013-5-28,84,79,76,75,73,72,92,83,72,30.11,30.04,16,4,20,0.13
2013-5-29,82,76,72,76,73,69,96,88,67,30.09,30.01,13,2,22,4.00
2013-5-30,82,78,74,76,73,69,94,84,75,30.08,30.00,20,4,28,0.75
2013-5-31,84,79,76,76,74,72,95,86,74,30.06,30.00,14,4,16,0.92